Time,TemperatureF,DewpointF,PressureIn,WindDirection,WindDirectionDegrees,WindSpeedMPH,WindSpeedGustMPH,Humidity,HourlyPrecipIn,Conditions,Clouds,dailyrainin,SolarRadiationWatts/m^2,SoftwareType,DateUTC
2013-12-08 00:01:00,22.7,16.0,30.30,SW,225,5.0,14.0,75,0.00,,,0.00,0,LWC V2.00 B727,2013-12-08 07:01:00,
2013-12-08 00:06:00,22.7,16.0,30.30,SW,229,5.0,11.0,75,0.00,,,0.00,0,LWC V2.00 B727,2013-12-08 07:06:00,
2013-12-08 00:11:00,22.8,16.1,30.29,SW,215,9.0,20.0,75,0.00,,,0.00,0,LWC V2.00 B727,2013-12-08 07:11:00,
2013-12-08 00:16:00,22.9,15.9,30.29,SSW,213,7.0,13.0,74,0.00,,,0.00,0,LWC V2.00 B727,2013-12-08 07:16:00,
2013-12-08 00:21:00,22.9,15.9,30.29,South,172,6.0,13.0,74,0.00,,,0.00,0,LWC V2.00 B727,2013-12-08 07:21:00,
2013-12-08 00:26:00,22.9,15.6,30.28,South,178,12.0,14.0,73,0.00,,,0.00,0,LWC V2.00 B727,2013-12-08 07:26:00,
2013-12-08 00:31:00,22.8,15.5,30.28,SW,218,3.0,10.0,73,0.00,,,0.00,0,LWC V2.00 B727,2013-12-08 07:31:00,
2013-12-08 00:36:00,22.7,15.1,30.27,SW,217,7.0,12.0,72,0.00,,,0.00,0,LWC V2.00 B727,2013-12-08 07:36:00,
2013-12-08 00:41:00,22.7,15.1,30.27,SSW,200,8.0,18.0,72,0.00,,,0.00,0,LWC V2.00 B727,2013-12-08 07:41:00,
2013-12-08 00:46:00,22.9,15.2,30.27,SSW,199,9.0,14.0,72,0.00,,,0.00,0,LWC V2.00 B727,2013-12-08 07:46:00,
2013-12-08 00:51:00,23.0,15.3,30.26,SSW,198,7.0,14.0,72,0.00,,,0.00,0,LWC V2.00 B727,2013-12-08 07:51:00,
2013-12-08 00:56:00,23.2,15.2,30.27,SSW,213,5.0,20.0,71,0.00,,,0.00,0,LWC V2.00 B727,2013-12-08 07:56:00,
2013-12-08 01:01:00,23.3,15.0,30.26,South,180,7.0,18.0,70,0.00,,,0.00,0,LWC V2.00 B727,2013-12-08 08:01:00,
2013-12-08 01:06:00,23.4,15.1,30.26,South,186,7.0,17.0,70,0.00,,,0.00,0,LWC V2.00 B727,2013-12-08 08:06:00,
2013-12-08 01:11:00,23.4,15.1,30.25,SSW,195,3.0,16.0,70,0.00,,,0.00,0,LWC V2.00 B727,2013-12-08 08:11:00,
2013-12-08 01:16:00,23.4,14.8,30.25,SSW,201,7.0,17.0,69,0.00,,,0.00,0,LWC V2.00 B727,2013-12-08 08:16:00,
2013-12-08 01:21:00,23.5,14.9,30.25,WSW,244,5.0,15.0,69,0.00,,,0.00,0,LWC V2.00 B727,2013-12-08 08:21:00,
2013-12-08 01:26:00,23.4,14.8,30.25,SSW,213,4.0,11.0,69,0.00,,,0.00,0,LWC V2.00 B727,2013-12-08 08:26:00,
2013-12-08 01:31:00,23.3,14.7,30.24,WSW,248,4.0,7.0,69,0.00,,,0.00,0,LWC V2.00 B727,2013-12-08 08:31:00,
2013-12-08 01:36:00,23.1,14.5,30.24,SW,235,4.0,14.0,69,0.00,,,0.00,0,LWC V2.00 B727,2013-12-08 08:36:00,
2013-12-08 01:41:00,22.9,14.3,30.24,South,190,11.0,17.0,69,0.00,,,0.00,0,LWC V2.00 B727,2013-12-08 08:41:00,
2013-12-08 01:46:00,22.9,14.6,30.23,SW,215,6.0,14.0,70,0.00,,,0.00,0,LWC V2.00 B727,2013-12-08 08:46:00,
2013-12-08 01:51:00,22.9,14.6,30.23,SSW,192,9.0,9.0,70,0.00,,,0.00,0,LWC V2.00 B727,2013-12-08 08:51:00,
2013-12-08 01:56:00,22.8,14.5,30.22,SSW,212,5.0,10.0,70,0.00,,,0.00,0,LWC V2.00 B727,2013-12-08 08:56:00,
2013-12-08 02:01:00,22.9,14.9,30.22,South,177,12.0,16.0,71,0.00,,,0.00,0,LWC V2.00 B727,2013-12-08 09:01:00,
2013-12-08 02:06:00,23.1,15.1,30.22,SSE,165,11.0,15.0,71,0.00,,,0.00,0,LWC V2.00 B727,2013-12-08 09:06:00,
2013-12-08 02:11:00,23.2,15.5,30.21,SSE,168,5.0,11.0,72,0.00,,,0.00,0,LWC V2.00 B727,2013-12-08 09:11:00,
2013-12-08 02:16:00,23.2,15.5,30.21,SSW,202,6.0,13.0,72,0.00,,,0.00,0,LWC V2.00 B727,2013-12-08 09:16:00,
2013-12-08 02:21:00,23.3,15.6,30.21,SW,227,15.0,17.0,72,0.00,,,0.00,0,LWC V2.00 B727,2013-12-08 09:21:00,
2013-12-08 02:26:00,23.3,15.9,30.21,SSW,210,7.0,17.0,73,0.00,,,0.00,0,LWC V2.00 B727,2013-12-08 09:26:00,
2013-12-08 02:31:00,23.3,16.6,30.21,SSW,209,7.0,21.0,75,0.00,,,0.00,0,LWC V2.00 B727,2013-12-08 09:31:00,
2013-12-08 02:36:00,23.1,16.7,30.20,SW,219,9.0,13.0,76,0.00,,,0.00,0,LWC V2.00 B727,2013-12-08 09:36:00,
2013-12-08 02:41:00,22.9,16.5,30.20,SSW,196,9.0,16.0,76,0.00,,,0.00,0,LWC V2.00 B727,2013-12-08 09:41:00,
2013-12-08 02:46:00,22.9,16.5,30.20,South,190,9.0,13.0,76,0.00,,,0.00,0,LWC V2.00 B727,2013-12-08 09:46:00,
2013-12-08 02:51:00,22.9,16.8,30.19,SW,218,13.0,18.0,77,0.00,,,0.00,0,LWC V2.00 B727,2013-12-08 09:51:00,
2013-12-08 02:56:00,23.0,16.9,30.19,SSW,210,8.0,16.0,77,0.00,,,0.00,0,LWC V2.00 B727,2013-12-08 09:56:00,
2013-12-08 03:01:00,23.1,17.0,30.19,SW,221,4.0,18.0,77,0.00,,,0.00,0,LWC V2.00 B727,2013-12-08 10:01:00,
2013-12-08 03:06:00,23.1,17.0,30.18,SSW,200,14.0,15.0,77,0.00,,,0.00,0,LWC V2.00 B727,2013-12-08 10:06:00,
2013-12-08 03:11:00,23.1,17.0,30.19,SSE,165,7.0,16.0,77,0.00,,,0.00,0,LWC V2.00 B727,2013-12-08 10:11:00,
2013-12-08 03:16:00,23.2,17.4,30.18,South,188,14.0,17.0,78,0.00,,,0.00,0,LWC V2.00 B727,2013-12-08 10:16:00,
2013-12-08 03:21:00,23.2,17.4,30.18,South,182,14.0,18.0,78,0.00,,,0.00,0,LWC V2.00 B727,2013-12-08 10:21:00,
2013-12-08 03:26:00,23.1,17.9,30.18,South,190,12.0,18.0,80,0.00,,,0.00,0,LWC V2.00 B727,2013-12-08 10:26:00,
2013-12-08 03:31:00,23.0,17.8,30.18,SSW,209,7.0,19.0,80,0.00,,,0.00,0,LWC V2.00 B727,2013-12-08 10:31:00,
2013-12-08 03:36:00,23.0,17.8,30.18,SW,214,11.0,17.0,80,0.00,,,0.00,0,LWC V2.00 B727,2013-12-08 10:36:00,
2013-12-08 03:41:00,23.0,17.8,30.17,South,179,9.0,18.0,80,0.00,,,0.00,0,LWC V2.00 B727,2013-12-08 10:41:00,
2013-12-08 03:46:00,23.0,17.8,30.17,SSW,194,10.0,16.0,80,0.00,,,0.00,0,LWC V2.00 B727,2013-12-08 10:46:00,
2013-12-08 03:51:00,23.1,17.6,30.17,SSW,205,10.0,13.0,79,0.00,,,0.00,0,LWC V2.00 B727,2013-12-08 10:51:00,
2013-12-08 03:56:00,23.1,17.6,30.18,SW,225,11.0,15.0,79,0.00,,,0.00,0,LWC V2.00 B727,2013-12-08 10:56:00,
2013-12-08 04:02:00,23.2,18.0,30.17,SSW,209,5.0,11.0,80,0.00,,,0.00,0,LWC V2.00 B727,2013-12-08 11:02:00,
2013-12-08 04:07:00,23.2,18.0,30.17,South,184,11.0,21.0,80,0.00,,,0.00,0,LWC V2.00 B727,2013-12-08 11:07:00,
2013-12-08 04:12:00,23.2,18.0,30.16,SSW,207,5.0,10.0,80,0.00,,,0.00,0,LWC V2.00 B727,2013-12-08 11:12:00,
2013-12-08 04:17:00,23.3,18.3,30.16,SSW,194,17.0,17.0,81,0.00,,,0.00,0,LWC V2.00 B727,2013-12-08 11:17:00,
2013-12-08 04:22:00,23.3,18.3,30.16,South,188,7.0,10.0,81,0.00,,,0.00,0,LWC V2.00 B727,2013-12-08 11:22:00,
2013-12-08 04:27:00,23.2,18.3,30.15,South,178,9.0,13.0,81,0.00,,,0.00,0,LWC V2.00 B727,2013-12-08 11:27:00,
2013-12-08 04:32:00,23.1,18.2,30.14,South,184,12.0,17.0,81,0.00,,,0.00,0,LWC V2.00 B727,2013-12-08 11:32:00,
2013-12-08 04:37:00,23.0,18.3,30.14,SSW,207,12.0,16.0,82,0.00,,,0.00,0,LWC V2.00 B727,2013-12-08 11:37:00,
2013-12-08 04:42:00,23.0,18.3,30.14,SSW,202,11.0,16.0,82,0.00,,,0.00,0,LWC V2.00 B727,2013-12-08 11:42:00,
2013-12-08 04:47:00,23.1,18.4,30.14,SSW,198,6.0,11.0,82,0.00,,,0.00,0,LWC V2.00 B727,2013-12-08 11:47:00,
2013-12-08 04:52:00,23.1,18.4,30.14,SSW,209,7.0,18.0,82,0.00,,,0.00,0,LWC V2.00 B727,2013-12-08 11:52:00,
2013-12-08 04:57:00,23.1,18.4,30.14,SW,218,8.0,15.0,82,0.00,,,0.00,0,LWC V2.00 B727,2013-12-08 11:57:00,
2013-12-08 05:02:00,23.1,18.4,30.14,SW,216,6.0,18.0,82,0.00,,,0.00,0,LWC V2.00 B727,2013-12-08 12:02:00,
2013-12-08 05:07:00,23.1,18.4,30.13,SSW,206,5.0,15.0,82,0.00,,,0.00,0,LWC V2.00 B727,2013-12-08 12:07:00,
2013-12-08 05:12:00,23.2,18.5,30.13,SSW,194,5.0,22.0,82,0.00,,,0.00,0,LWC V2.00 B727,2013-12-08 12:12:00,
2013-12-08 05:17:00,23.1,18.2,30.13,West,267,4.0,12.0,81,0.00,,,0.00,0,LWC V2.00 B727,2013-12-08 12:17:00,
2013-12-08 05:22:00,23.1,17.9,30.13,WSW,251,8.0,17.0,80,0.00,,,0.00,0,LWC V2.00 B727,2013-12-08 12:22:00,
2013-12-08 05:27:00,23.2,18.5,30.13,South,190,11.0,16.0,82,0.00,,,0.00,0,LWC V2.00 B727,2013-12-08 12:27:00,
2013-12-08 05:32:00,23.2,18.5,30.13,South,190,9.0,25.0,82,0.00,,,0.00,0,LWC V2.00 B727,2013-12-08 12:32:00,
2013-12-08 05:37:00,23.1,18.4,30.12,SW,225,10.0,21.0,82,0.00,,,0.00,0,LWC V2.00 B727,2013-12-08 12:37:00,
2013-12-08 05:42:00,23.0,18.6,30.13,SSW,195,11.0,21.0,83,0.00,,,0.00,0,LWC V2.00 B727,2013-12-08 12:42:00,
2013-12-08 05:47:00,22.9,18.8,30.14,SSW,213,15.0,19.0,84,0.00,,,0.00,0,LWC V2.00 B727,2013-12-08 12:47:00,
2013-12-08 05:52:00,22.8,19.0,30.16,SW,217,5.0,16.0,85,0.00,,,0.00,0,LWC V2.00 B727,2013-12-08 12:52:00,
2013-12-08 05:57:00,22.6,18.8,30.17,West,259,3.0,19.0,85,0.00,,,0.00,0,LWC V2.00 B727,2013-12-08 12:57:00,
2013-12-08 06:02:00,22.0,18.5,30.19,NW,304,10.0,21.0,86,0.00,,,0.00,0,LWC V2.00 B727,2013-12-08 13:02:00,
2013-12-08 06:07:00,21.4,17.9,30.19,WNW,283,11.0,14.0,86,0.00,,,0.00,0,LWC V2.00 B727,2013-12-08 13:07:00,
2013-12-08 06:12:00,20.6,17.1,30.19,WNW,289,10.0,12.0,86,0.00,,,0.00,0,LWC V2.00 B727,2013-12-08 13:12:00,
2013-12-08 06:17:00,19.7,16.2,30.19,WSW,250,7.0,11.0,86,0.00,,,0.00,0,LWC V2.00 B727,2013-12-08 13:17:00,
2013-12-08 06:22:00,19.3,17.9,30.19,SW,214,5.0,13.0,94,0.00,,,0.00,0,LWC V2.00 B727,2013-12-08 13:22:00,
2013-12-08 06:27:00,19.0,15.5,30.19,WSW,240,7.0,8.0,86,0.00,,,0.00,0,LWC V2.00 B727,2013-12-08 13:27:00,
2013-12-08 06:32:00,18.8,15.3,30.19,WSW,248,5.0,15.0,86,0.00,,,0.00,0,LWC V2.00 B727,2013-12-08 13:32:00,
2013-12-08 06:37:00,18.6,15.1,30.20,WSW,250,5.0,15.0,86,0.00,,,0.00,0,LWC V2.00 B727,2013-12-08 13:37:00,
2013-12-08 06:42:00,18.5,15.0,30.21,West,265,5.0,12.0,86,0.00,,,0.00,0,LWC V2.00 B727,2013-12-08 13:42:00,
2013-12-08 06:47:00,18.4,14.9,30.22,WSW,250,3.0,8.0,86,0.00,,,0.00,0,LWC V2.00 B727,2013-12-08 13:47:00,
2013-12-08 06:52:00,18.3,14.8,30.23,West,281,9.0,11.0,86,0.00,,,0.00,0,LWC V2.00 B727,2013-12-08 13:52:00,
2013-12-08 06:57:00,18.3,14.8,30.23,West,277,4.0,6.0,86,0.00,,,0.00,0,LWC V2.00 B727,2013-12-08 13:57:00,
2013-12-08 07:02:00,18.2,14.7,30.23,WNW,286,9.0,16.0,86,0.00,,,0.00,0,LWC V2.00 B727,2013-12-08 14:02:00,
2013-12-08 07:07:00,18.2,14.7,30.23,WNW,284,2.0,8.0,86,0.00,,,0.00,0,LWC V2.00 B727,2013-12-08 14:07:00,
2013-12-08 07:12:00,18.0,14.5,30.23,West,261,2.0,9.0,86,0.00,,,0.00,0,LWC V2.00 B727,2013-12-08 14:12:00,
2013-12-08 07:17:00,17.9,14.4,30.24,West,276,3.0,9.0,86,0.00,,,0.00,5,LWC V2.00 B727,2013-12-08 14:17:00,
2013-12-08 07:22:00,17.7,14.0,30.24,West,269,8.0,9.0,85,0.00,,,0.00,0,LWC V2.00 B727,2013-12-08 14:22:00,
2013-12-08 07:27:00,17.4,13.7,30.24,WNW,300,8.0,13.0,85,0.00,,,0.00,5,LWC V2.00 B727,2013-12-08 14:27:00,
2013-12-08 07:32:00,17.2,13.5,30.25,West,268,11.0,13.0,85,0.00,,,0.00,0,LWC V2.00 B727,2013-12-08 14:32:00,
2013-12-08 07:37:00,17.0,13.3,30.25,WSW,237,3.0,10.0,85,0.00,,,0.00,11,LWC V2.00 B727,2013-12-08 14:37:00,
2013-12-08 07:42:00,16.9,13.2,30.25,West,259,1.0,9.0,85,0.00,,,0.00,12,LWC V2.00 B727,2013-12-08 14:42:00,
2013-12-08 07:47:00,16.8,13.1,30.26,West,279,2.0,10.0,85,0.00,,,0.00,14,LWC V2.00 B727,2013-12-08 14:47:00,
2013-12-08 07:52:00,16.7,13.0,30.27,WSW,252,8.0,10.0,85,0.00,,,0.00,16,LWC V2.00 B727,2013-12-08 14:52:00,
2013-12-08 07:57:00,16.6,12.9,30.27,SW,232,7.0,9.0,85,0.00,,,0.00,23,LWC V2.00 B727,2013-12-08 14:57:00,
2013-12-08 08:02:00,16.5,12.8,30.27,NW,311,3.0,6.0,85,0.00,,,0.00,21,LWC V2.00 B727,2013-12-08 15:02:00,
2013-12-08 08:07:00,16.4,12.7,30.27,WSW,241,3.0,11.0,85,0.00,,,0.00,42,LWC V2.00 B727,2013-12-08 15:07:00,
2013-12-08 08:12:00,16.4,12.7,30.29,WSW,256,5.0,10.0,85,0.00,,,0.00,30,LWC V2.00 B727,2013-12-08 15:12:00,
2013-12-08 08:17:00,16.3,12.6,30.29,SW,221,6.0,13.0,85,0.00,,,0.00,39,LWC V2.00 B727,2013-12-08 15:17:00,
2013-12-08 08:22:00,16.2,12.2,30.29,West,281,7.0,15.0,84,0.00,,,0.00,42,LWC V2.00 B727,2013-12-08 15:22:00,
2013-12-08 08:27:00,16.1,12.1,30.28,WSW,238,8.0,9.0,84,0.00,,,0.00,76,LWC V2.00 B727,2013-12-08 15:27:00,
2013-12-08 08:32:00,16.1,12.1,30.28,SW,219,6.0,8.0,84,0.00,,,0.00,62,LWC V2.00 B727,2013-12-08 15:32:00,
2013-12-08 08:37:00,16.0,12.0,30.28,WSW,238,5.0,8.0,84,0.00,,,0.00,53,LWC V2.00 B727,2013-12-08 15:37:00,
2013-12-08 08:42:00,15.9,11.9,30.29,WSW,250,7.0,17.0,84,0.00,,,0.00,58,LWC V2.00 B727,2013-12-08 15:42:00,
2013-12-08 08:47:00,15.9,11.9,30.30,WSW,246,4.0,9.0,84,0.00,,,0.00,67,LWC V2.00 B727,2013-12-08 15:47:00,
2013-12-08 08:52:00,15.9,11.9,30.30,SW,233,6.0,10.0,84,0.00,,,0.00,70,LWC V2.00 B727,2013-12-08 15:52:00,
2013-12-08 08:57:00,15.8,11.8,30.30,West,265,7.0,9.0,84,0.00,,,0.00,67,LWC V2.00 B727,2013-12-08 15:57:00,
2013-12-08 09:02:00,15.8,11.8,30.31,West,271,2.0,8.0,84,0.00,,,0.00,65,LWC V2.00 B727,2013-12-08 16:02:00,
2013-12-08 09:07:00,15.8,11.8,30.31,WSW,254,9.0,10.0,84,0.00,,,0.00,65,LWC V2.00 B727,2013-12-08 16:07:00,
2013-12-08 09:12:00,15.8,11.8,30.31,WSW,250,3.0,4.0,84,0.00,,,0.00,37,LWC V2.00 B727,2013-12-08 16:12:00,
2013-12-08 09:17:00,15.7,11.7,30.31,SW,223,10.0,15.0,84,0.00,,,0.00,77,LWC V2.00 B727,2013-12-08 16:17:00,
2013-12-08 09:22:00,15.6,11.4,30.32,West,274,9.0,14.0,83,0.00,,,0.00,116,LWC V2.00 B727,2013-12-08 16:22:00,
2013-12-08 09:27:00,15.6,11.4,30.33,SW,229,7.0,7.0,83,0.00,,,0.00,109,LWC V2.00 B727,2013-12-08 16:27:00,
2013-12-08 09:32:00,15.7,11.5,30.33,WSW,240,7.0,12.0,83,0.00,,,0.00,69,LWC V2.00 B727,2013-12-08 16:32:00,
2013-12-08 09:37:00,15.7,11.5,30.33,WSW,242,5.0,9.0,83,0.00,,,0.00,84,LWC V2.00 B727,2013-12-08 16:37:00,
2013-12-08 09:42:00,15.7,11.5,30.33,SW,228,3.0,10.0,83,0.00,,,0.00,72,LWC V2.00 B727,2013-12-08 16:42:00,
2013-12-08 09:47:00,15.7,11.2,30.33,West,273,4.0,8.0,82,0.00,,,0.00,109,LWC V2.00 B727,2013-12-08 16:47:00,
2013-12-08 09:52:00,15.7,11.2,30.33,SW,230,5.0,15.0,82,0.00,,,0.00,148,LWC V2.00 B727,2013-12-08 16:52:00,
2013-12-08 09:57:00,15.8,11.3,30.34,WSW,249,6.0,12.0,82,0.00,,,0.00,127,LWC V2.00 B727,2013-12-08 16:57:00,
2013-12-08 10:02:00,15.9,11.4,30.34,SSW,199,12.0,12.0,82,0.00,,,0.00,169,LWC V2.00 B727,2013-12-08 17:02:00,
2013-12-08 10:07:00,16.0,11.2,30.33,WSW,240,7.0,11.0,81,0.00,,,0.00,135,LWC V2.00 B727,2013-12-08 17:07:00,
2013-12-08 10:12:00,16.0,11.2,30.33,WSW,246,7.0,9.0,81,0.00,,,0.00,221,LWC V2.00 B727,2013-12-08 17:12:00,
2013-12-08 10:17:00,16.1,11.3,30.34,SW,222,5.0,15.0,81,0.00,,,0.00,158,LWC V2.00 B727,2013-12-08 17:17:00,
2013-12-08 10:22:00,16.4,11.6,30.34,SSW,213,4.0,9.0,81,0.00,,,0.00,146,LWC V2.00 B727,2013-12-08 17:22:00,
2013-12-08 10:27:00,16.4,11.6,30.34,WSW,243,8.0,12.0,81,0.00,,,0.00,141,LWC V2.00 B727,2013-12-08 17:27:00,
2013-12-08 10:32:00,16.5,11.7,30.34,WNW,302,8.0,10.0,81,0.00,,,0.00,204,LWC V2.00 B727,2013-12-08 17:32:00,
2013-12-08 10:37:00,16.5,11.4,30.34,West,267,5.0,11.0,80,0.00,,,0.00,197,LWC V2.00 B727,2013-12-08 17:37:00,
2013-12-08 10:42:00,16.8,11.4,30.34,West,281,5.0,20.0,79,0.00,,,0.00,234,LWC V2.00 B727,2013-12-08 17:42:00,
2013-12-08 10:47:00,17.2,11.3,30.34,WNW,286,5.0,22.0,77,0.00,,,0.00,404,LWC V2.00 B727,2013-12-08 17:47:00,
2013-12-08 10:52:00,17.7,11.7,30.33,WNW,299,4.0,14.0,77,0.00,,,0.00,487,LWC V2.00 B727,2013-12-08 17:52:00,
2013-12-08 10:57:00,18.0,11.7,30.34,West,270,12.0,16.0,76,0.00,,,0.00,434,LWC V2.00 B727,2013-12-08 17:57:00,
2013-12-08 11:02:00,18.1,12.1,30.34,WSW,245,9.0,14.0,77,0.00,,,0.00,327,LWC V2.00 B727,2013-12-08 18:02:00,
2013-12-08 11:07:00,18.2,11.9,30.34,West,275,10.0,19.0,76,0.00,,,0.00,381,LWC V2.00 B727,2013-12-08 18:07:00,
2013-12-08 11:12:00,18.2,12.2,30.34,SW,224,10.0,12.0,77,0.00,,,0.00,388,LWC V2.00 B727,2013-12-08 18:12:00,
2013-12-08 11:17:00,17.9,11.9,30.34,WSW,254,3.0,14.0,77,0.00,,,0.00,309,LWC V2.00 B727,2013-12-08 18:17:00,
2013-12-08 11:22:00,17.8,11.8,30.34,WSW,238,6.0,15.0,77,0.00,,,0.00,424,LWC V2.00 B727,2013-12-08 18:22:00,
2013-12-08 11:27:00,17.8,11.8,30.34,WNW,284,3.0,16.0,77,0.00,,,0.00,425,LWC V2.00 B727,2013-12-08 18:27:00,
2013-12-08 11:32:00,18.0,11.7,30.34,WSW,251,3.0,19.0,76,0.00,,,0.00,439,LWC V2.00 B727,2013-12-08 18:32:00,
2013-12-08 11:37:00,18.3,11.1,30.34,West,273,13.0,18.0,73,0.00,,,0.00,608,LWC V2.00 B727,2013-12-08 18:37:00,
2013-12-08 11:42:00,18.8,11.0,30.34,WNW,284,9.0,9.0,71,0.00,,,0.00,628,LWC V2.00 B727,2013-12-08 18:42:00,
2013-12-08 11:47:00,19.1,10.6,30.33,WSW,250,6.0,21.0,69,0.00,,,0.00,650,LWC V2.00 B727,2013-12-08 18:47:00,
2013-12-08 11:52:00,19.7,11.2,30.33,North,355,10.0,16.0,69,0.00,,,0.00,642,LWC V2.00 B727,2013-12-08 18:52:00,
2013-12-08 11:57:00,19.7,10.5,30.34,West,271,8.0,20.0,67,0.00,,,0.00,615,LWC V2.00 B727,2013-12-08 18:57:00,
2013-12-08 12:02:00,19.7,10.9,30.33,SW,218,7.0,11.0,68,0.00,,,0.00,691,LWC V2.00 B727,2013-12-08 19:02:00,
2013-12-08 12:07:00,19.8,10.6,30.33,WSW,239,8.0,17.0,67,0.00,,,0.00,394,LWC V2.00 B727,2013-12-08 19:07:00,
2013-12-08 12:12:00,19.7,9.9,30.33,WNW,296,12.0,17.0,65,0.00,,,0.00,494,LWC V2.00 B727,2013-12-08 19:12:00,
2013-12-08 12:17:00,19.7,9.9,30.33,WSW,247,7.0,15.0,65,0.00,,,0.00,526,LWC V2.00 B727,2013-12-08 19:17:00,
2013-12-08 12:22:00,19.8,10.0,30.33,NNW,331,6.0,18.0,65,0.00,,,0.00,650,LWC V2.00 B727,2013-12-08 19:22:00,
2013-12-08 12:27:00,19.8,9.6,30.34,NW,306,8.0,22.0,64,0.00,,,0.00,615,LWC V2.00 B727,2013-12-08 19:27:00,
2013-12-08 12:32:00,19.8,8.6,30.33,West,264,9.0,16.0,61,0.00,,,0.00,192,LWC V2.00 B727,2013-12-08 19:32:00,
2013-12-08 12:37:00,20.0,8.7,30.33,WSW,257,7.0,28.0,61,0.00,,,0.00,612,LWC V2.00 B727,2013-12-08 19:37:00,
2013-12-08 12:42:00,20.0,6.9,30.33,SW,219,10.0,21.0,56,0.00,,,0.00,594,LWC V2.00 B727,2013-12-08 19:42:00,
2013-12-08 12:47:00,20.2,6.2,30.33,SW,223,7.0,23.0,54,0.00,,,0.00,582,LWC V2.00 B727,2013-12-08 19:47:00,
2013-12-08 12:52:00,20.4,6.0,30.33,SW,230,6.0,14.0,53,0.00,,,0.00,580,LWC V2.00 B727,2013-12-08 19:52:00,
2013-12-08 12:57:00,20.4,5.2,30.34,West,266,8.0,17.0,51,0.00,,,0.00,575,LWC V2.00 B727,2013-12-08 19:57:00,
2013-12-08 13:02:00,20.4,5.2,30.34,WSW,250,4.0,21.0,51,0.00,,,0.00,570,LWC V2.00 B727,2013-12-08 20:02:00,
2013-12-08 13:07:00,20.6,4.5,30.34,West,271,23.0,23.0,49,0.00,,,0.00,563,LWC V2.00 B727,2013-12-08 20:07:00,
2013-12-08 13:12:00,20.4,3.9,30.35,SSW,211,7.0,21.0,48,0.00,,,0.00,554,LWC V2.00 B727,2013-12-08 20:12:00,
2013-12-08 13:17:00,20.6,4.5,30.34,SW,232,4.0,23.0,49,0.00,,,0.00,547,LWC V2.00 B727,2013-12-08 20:17:00,
2013-12-08 13:22:00,21.1,4.1,30.34,WSW,248,10.0,18.0,47,0.00,,,0.00,540,LWC V2.00 B727,2013-12-08 20:22:00,
2013-12-08 13:27:00,21.4,3.9,30.34,West,271,4.0,14.0,46,0.00,,,0.00,531,LWC V2.00 B727,2013-12-08 20:27:00,
2013-12-08 13:32:00,21.6,4.1,30.34,SW,232,11.0,11.0,46,0.00,,,0.00,524,LWC V2.00 B727,2013-12-08 20:32:00,
2013-12-08 13:37:00,21.8,3.3,30.35,WSW,248,8.0,16.0,44,0.00,,,0.00,515,LWC V2.00 B727,2013-12-08 20:37:00,
2013-12-08 13:42:00,21.6,2.6,30.34,WSW,256,10.0,18.0,43,0.00,,,0.00,506,LWC V2.00 B727,2013-12-08 20:42:00,
2013-12-08 13:47:00,21.3,2.8,30.35,SSW,211,8.0,13.0,44,0.00,,,0.00,497,LWC V2.00 B727,2013-12-08 20:47:00,
2013-12-08 13:52:00,21.5,2.5,30.35,West,275,7.0,15.0,43,0.00,,,0.00,487,LWC V2.00 B727,2013-12-08 20:52:00,
2013-12-08 13:57:00,21.4,1.9,30.35,West,275,8.0,20.0,42,0.00,,,0.00,475,LWC V2.00 B727,2013-12-08 20:57:00,
2013-12-08 14:02:00,21.4,1.9,30.35,WSW,253,6.0,10.0,42,0.00,,,0.00,466,LWC V2.00 B727,2013-12-08 21:02:00,
2013-12-08 14:07:00,21.5,2.5,30.35,WNW,285,3.0,16.0,43,0.00,,,0.00,455,LWC V2.00 B727,2013-12-08 21:07:00,
2013-12-08 14:12:00,21.6,2.1,30.35,WNW,300,11.0,11.0,42,0.00,,,0.00,445,LWC V2.00 B727,2013-12-08 21:12:00,
2013-12-08 14:17:00,21.4,1.9,30.36,West,279,4.0,16.0,42,0.00,,,0.00,432,LWC V2.00 B727,2013-12-08 21:17:00,
2013-12-08 14:22:00,21.2,0.2,30.36,WNW,285,9.0,21.0,39,0.00,,,0.00,422,LWC V2.00 B727,2013-12-08 21:22:00,
2013-12-08 14:27:00,21.2,1.2,30.35,WNW,299,15.0,15.0,41,0.00,,,0.00,410,LWC V2.00 B727,2013-12-08 21:27:00,
2013-12-08 14:32:00,21.5,1.0,30.36,West,281,8.0,11.0,40,0.00,,,0.00,397,LWC V2.00 B727,2013-12-08 21:32:00,
2013-12-08 14:37:00,21.6,1.1,30.36,WNW,286,6.0,10.0,40,0.00,,,0.00,383,LWC V2.00 B727,2013-12-08 21:37:00,
2013-12-08 14:42:00,21.7,0.6,30.36,WSW,255,15.0,15.0,39,0.00,,,0.00,371,LWC V2.00 B727,2013-12-08 21:42:00,
2013-12-08 14:47:00,21.7,0.6,30.36,West,279,9.0,18.0,39,0.00,,,0.00,355,LWC V2.00 B727,2013-12-08 21:47:00,
2013-12-08 14:52:00,21.5,0.4,30.37,NW,313,8.0,11.0,39,0.00,,,0.00,341,LWC V2.00 B727,2013-12-08 21:52:00,
2013-12-08 14:57:00,21.2,0.2,30.36,WNW,295,5.0,13.0,39,0.00,,,0.00,325,LWC V2.00 B727,2013-12-08 21:57:00,
2013-12-08 15:02:00,21.2,0.2,30.37,WSW,256,7.0,13.0,39,0.00,,,0.00,308,LWC V2.00 B727,2013-12-08 22:02:00,
2013-12-08 15:07:00,20.9,-0.7,30.37,SW,236,7.0,13.0,38,0.00,,,0.00,288,LWC V2.00 B727,2013-12-08 22:07:00,
2013-12-08 15:12:00,20.7,-0.8,30.37,WSW,254,7.0,12.0,38,0.00,,,0.00,269,LWC V2.00 B727,2013-12-08 22:12:00,
2013-12-08 15:17:00,20.7,-0.8,30.37,WSW,246,9.0,17.0,38,0.00,,,0.00,251,LWC V2.00 B727,2013-12-08 22:17:00,
2013-12-08 15:22:00,20.6,-0.9,30.38,WSW,257,7.0,11.0,38,0.00,,,0.00,232,LWC V2.00 B727,2013-12-08 22:22:00,
2013-12-08 15:27:00,20.6,-0.9,30.38,WNW,282,9.0,9.0,38,0.00,,,0.00,211,LWC V2.00 B727,2013-12-08 22:27:00,
2013-12-08 15:32:00,20.6,-0.9,30.37,WSW,246,2.0,8.0,38,0.00,,,0.00,190,LWC V2.00 B727,2013-12-08 22:32:00,
2013-12-08 15:37:00,20.6,-0.9,30.38,West,276,7.0,8.0,38,0.00,,,0.00,172,LWC V2.00 B727,2013-12-08 22:37:00,
2013-12-08 15:42:00,20.4,-1.1,30.38,WSW,242,3.0,13.0,38,0.00,,,0.00,149,LWC V2.00 B727,2013-12-08 22:42:00,
2013-12-08 15:47:00,20.2,-1.3,30.38,WSW,250,3.0,10.0,38,0.00,,,0.00,128,LWC V2.00 B727,2013-12-08 22:47:00,
2013-12-08 15:52:00,20.1,-1.4,30.38,SSW,209,5.0,10.0,38,0.00,,,0.00,113,LWC V2.00 B727,2013-12-08 22:52:00,
2013-12-08 15:57:00,19.9,-1.0,30.39,South,191,2.0,10.0,39,0.00,,,0.00,97,LWC V2.00 B727,2013-12-08 22:57:00,
2013-12-08 16:02:00,19.7,-1.2,30.39,West,267,7.0,10.0,39,0.00,,,0.00,76,LWC V2.00 B727,2013-12-08 23:02:00,
2013-12-08 16:07:00,19.7,-1.2,30.39,WSW,241,5.0,9.0,39,0.00,,,0.00,60,LWC V2.00 B727,2013-12-08 23:07:00,
2013-12-08 16:12:00,19.6,-1.3,30.38,WSW,256,3.0,10.0,39,0.00,,,0.00,44,LWC V2.00 B727,2013-12-08 23:12:00,
2013-12-08 16:17:00,19.4,-1.5,30.38,SW,221,4.0,9.0,39,0.00,,,0.00,30,LWC V2.00 B727,2013-12-08 23:17:00,
2013-12-08 16:22:00,19.2,-1.6,30.39,SW,235,4.0,5.0,39,0.00,,,0.00,16,LWC V2.00 B727,2013-12-08 23:22:00,
2013-12-08 16:27:00,18.9,-1.9,30.39,WSW,244,4.0,8.0,39,0.00,,,0.00,11,LWC V2.00 B727,2013-12-08 23:27:00,
2013-12-08 16:32:00,18.6,-1.7,30.39,WSW,238,3.0,7.0,40,0.00,,,0.00,11,LWC V2.00 B727,2013-12-08 23:32:00,
2013-12-08 16:37:00,18.2,-2.0,30.39,West,262,7.0,7.0,40,0.00,,,0.00,9,LWC V2.00 B727,2013-12-08 23:37:00,
2013-12-08 16:42:00,18.0,-2.2,30.40,SW,234,7.0,7.0,40,0.00,,,0.00,7,LWC V2.00 B727,2013-12-08 23:42:00,
2013-12-08 16:47:00,17.7,-2.0,30.40,SW,232,1.0,7.0,41,0.00,,,0.00,0,LWC V2.00 B727,2013-12-08 23:47:00,
2013-12-08 16:52:00,17.4,-2.2,30.40,SW,230,0.0,1.0,41,0.00,,,0.00,0,LWC V2.00 B727,2013-12-08 23:52:00,
2013-12-08 16:57:00,17.1,-2.5,30.40,SW,232,2.0,6.0,41,0.00,,,0.00,0,LWC V2.00 B727,2013-12-08 23:57:00,
2013-12-08 17:02:00,16.7,-2.4,30.39,SW,225,2.0,3.0,42,0.00,,,0.00,0,LWC V2.00 B727,2013-12-09 00:02:00,
2013-12-08 17:07:00,16.4,-2.1,30.39,SSW,210,1.0,2.0,43,0.00,,,0.00,0,LWC V2.00 B727,2013-12-09 00:07:00,
2013-12-08 17:12:00,16.1,-2.4,30.40,SSW,201,4.0,6.0,43,0.00,,,0.00,0,LWC V2.00 B727,2013-12-09 00:12:00,
2013-12-08 17:17:00,15.9,-2.1,30.40,SSW,194,2.0,3.0,44,0.00,,,0.00,0,LWC V2.00 B727,2013-12-09 00:17:00,
2013-12-08 17:22:00,15.6,-2.4,30.41,SSW,192,1.0,3.0,44,0.00,,,0.00,0,LWC V2.00 B727,2013-12-09 00:22:00,
2013-12-08 17:27:00,15.3,-1.7,30.41,South,191,2.0,3.0,46,0.00,,,0.00,0,LWC V2.00 B727,2013-12-09 00:27:00,
2013-12-08 17:32:00,15.0,-1.6,30.41,SSW,192,2.0,2.0,47,0.00,,,0.00,0,LWC V2.00 B727,2013-12-09 00:32:00,
2013-12-08 17:37:00,14.5,-1.6,30.42,South,191,2.0,4.0,48,0.00,,,0.00,0,LWC V2.00 B727,2013-12-09 00:37:00,
2013-12-08 17:42:00,14.3,-1.8,30.42,South,180,4.0,4.0,48,0.00,,,0.00,0,LWC V2.00 B727,2013-12-09 00:42:00,
2013-12-08 17:47:00,14.3,-1.3,30.42,South,185,4.0,5.0,49,0.00,,,0.00,0,LWC V2.00 B727,2013-12-09 00:47:00,
2013-12-08 17:52:00,14.5,-1.1,30.42,South,184,0.0,2.0,49,0.00,,,0.00,0,LWC V2.00 B727,2013-12-09 00:52:00,
2013-12-08 17:57:00,14.6,-1.0,30.43,South,184,2.0,4.0,49,0.00,,,0.00,0,LWC V2.00 B727,2013-12-09 00:57:00,
2013-12-08 18:02:00,14.7,-1.0,30.43,South,180,5.0,5.0,49,0.00,,,0.00,0,LWC V2.00 B727,2013-12-09 01:02:00,
2013-12-08 18:07:00,14.8,-0.9,30.43,South,188,2.0,6.0,49,0.00,,,0.00,0,LWC V2.00 B727,2013-12-09 01:07:00,
2013-12-08 18:12:00,14.8,-0.9,30.43,South,190,4.0,7.0,49,0.00,,,0.00,0,LWC V2.00 B727,2013-12-09 01:12:00,
2013-12-08 18:17:00,14.9,-0.8,30.44,SSW,194,3.0,6.0,49,0.00,,,0.00,0,LWC V2.00 B727,2013-12-09 01:17:00,
2013-12-08 18:22:00,15.0,-0.7,30.44,SSW,192,2.0,6.0,49,0.00,,,0.00,0,LWC V2.00 B727,2013-12-09 01:22:00,
2013-12-08 18:27:00,15.2,-0.5,30.44,SSW,194,3.0,6.0,49,0.00,,,0.00,0,LWC V2.00 B727,2013-12-09 01:27:00,
2013-12-08 18:32:00,15.2,-0.5,30.44,SSW,194,2.0,4.0,49,0.00,,,0.00,0,LWC V2.00 B727,2013-12-09 01:32:00,
2013-12-08 18:37:00,15.3,0.0,30.44,SSE,168,1.0,3.0,50,0.00,,,0.00,0,LWC V2.00 B727,2013-12-09 01:37:00,
2013-12-08 18:42:00,15.3,0.0,30.45,South,169,0.0,1.0,50,0.00,,,0.00,0,LWC V2.00 B727,2013-12-09 01:42:00,
2013-12-08 18:47:00,15.2,0.4,30.45,South,169,0.0,2.0,51,0.00,,,0.00,0,LWC V2.00 B727,2013-12-09 01:47:00,
2013-12-08 18:52:00,15.2,0.8,30.45,SSE,168,0.0,2.0,52,0.00,,,0.00,0,LWC V2.00 B727,2013-12-09 01:52:00,
2013-12-08 18:57:00,15.0,1.0,30.45,SSE,168,2.0,3.0,53,0.00,,,0.00,0,LWC V2.00 B727,2013-12-09 01:57:00,
2013-12-08 19:02:00,14.9,0.9,30.46,SSE,168,1.0,3.0,53,0.00,,,0.00,0,LWC V2.00 B727,2013-12-09 02:02:00,
2013-12-08 19:07:00,14.8,1.2,30.46,SSE,168,1.0,1.0,54,0.00,,,0.00,0,LWC V2.00 B727,2013-12-09 02:07:00,
2013-12-08 19:12:00,14.6,1.8,30.47,SSE,168,3.0,3.0,56,0.00,,,0.00,0,LWC V2.00 B727,2013-12-09 02:12:00,
2013-12-08 19:17:00,14.5,2.1,30.47,SSE,165,0.0,3.0,57,0.00,,,0.00,0,LWC V2.00 B727,2013-12-09 02:17:00,
2013-12-08 19:22:00,14.4,2.4,30.47,SSE,159,0.0,2.0,58,0.00,,,0.00,0,LWC V2.00 B727,2013-12-09 02:22:00,
2013-12-08 19:27:00,14.3,2.3,30.47,SSE,155,4.0,4.0,58,0.00,,,0.00,0,LWC V2.00 B727,2013-12-09 02:27:00,
2013-12-08 19:32:00,14.2,2.2,30.47,SSE,150,3.0,4.0,58,0.00,,,0.00,0,LWC V2.00 B727,2013-12-09 02:32:00,
2013-12-08 19:37:00,14.2,2.5,30.46,SE,140,4.0,5.0,59,0.00,,,0.00,0,LWC V2.00 B727,2013-12-09 02:37:00,
2013-12-08 19:42:00,14.2,2.5,30.47,SE,141,2.0,4.0,59,0.00,,,0.00,0,LWC V2.00 B727,2013-12-09 02:42:00,
2013-12-08 19:47:00,14.3,2.6,30.46,SE,140,1.0,2.0,59,0.00,,,0.00,0,LWC V2.00 B727,2013-12-09 02:47:00,
2013-12-08 19:52:00,14.3,3.0,30.46,SE,140,0.0,2.0,60,0.00,,,0.00,0,LWC V2.00 B727,2013-12-09 02:52:00,
2013-12-08 19:57:00,14.4,2.7,30.47,SE,140,3.0,4.0,59,0.00,,,0.00,0,LWC V2.00 B727,2013-12-09 02:57:00,
2013-12-08 20:02:00,14.3,2.6,30.47,SE,140,1.0,3.0,59,0.00,,,0.00,0,LWC V2.00 B727,2013-12-09 03:02:00,
2013-12-08 20:07:00,14.3,2.6,30.47,SE,140,1.0,4.0,59,0.00,,,0.00,0,LWC V2.00 B727,2013-12-09 03:07:00,
2013-12-08 20:12:00,14.4,2.7,30.46,SE,140,3.0,3.0,59,0.00,,,0.00,0,LWC V2.00 B727,2013-12-09 03:12:00,
2013-12-08 20:17:00,14.4,2.7,30.46,SE,140,1.0,3.0,59,0.00,,,0.00,0,LWC V2.00 B727,2013-12-09 03:17:00,
2013-12-08 20:22:00,14.5,3.5,30.47,SE,140,1.0,2.0,61,0.00,,,0.00,0,LWC V2.00 B727,2013-12-09 03:22:00,
2013-12-08 20:27:00,14.5,4.2,30.47,SE,140,1.0,2.0,63,0.00,,,0.00,0,LWC V2.00 B727,2013-12-09 03:27:00,
2013-12-08 20:32:00,14.5,4.2,30.46,SE,140,0.0,1.0,63,0.00,,,0.00,0,LWC V2.00 B727,2013-12-09 03:32:00,
2013-12-08 20:37:00,14.5,4.2,30.47,SE,140,1.0,1.0,63,0.00,,,0.00,0,LWC V2.00 B727,2013-12-09 03:37:00,
2013-12-08 20:42:00,14.4,4.5,30.47,SE,144,0.0,3.0,64,0.00,,,0.00,0,LWC V2.00 B727,2013-12-09 03:42:00,
2013-12-08 20:47:00,14.4,4.1,30.47,SE,144,0.0,0.0,63,0.00,,,0.00,0,LWC V2.00 B727,2013-12-09 03:47:00,
2013-12-08 20:52:00,14.4,4.1,30.47,SE,146,0.0,2.0,63,0.00,,,0.00,0,LWC V2.00 B727,2013-12-09 03:52:00,
2013-12-08 20:57:00,14.4,4.5,30.47,SE,145,0.0,1.0,64,0.00,,,0.00,0,LWC V2.00 B727,2013-12-09 03:57:00,
2013-12-08 21:02:00,14.4,4.8,30.47,SE,145,0.0,2.0,65,0.00,,,0.00,0,LWC V2.00 B727,2013-12-09 04:02:00,
2013-12-08 21:07:00,14.3,4.4,30.47,SE,145,0.0,2.0,64,0.00,,,0.00,0,LWC V2.00 B727,2013-12-09 04:07:00,
2013-12-08 21:12:00,14.3,4.0,30.48,SE,145,1.0,1.0,63,0.00,,,0.00,0,LWC V2.00 B727,2013-12-09 04:12:00,
2013-12-08 21:17:00,14.4,4.8,30.48,SE,145,0.0,1.0,65,0.00,,,0.00,0,LWC V2.00 B727,2013-12-09 04:17:00,
2013-12-08 21:22:00,14.4,5.1,30.48,SE,145,0.0,1.0,66,0.00,,,0.00,0,LWC V2.00 B727,2013-12-09 04:22:00,
2013-12-08 21:27:00,14.4,5.1,30.48,SE,145,0.0,0.0,66,0.00,,,0.00,0,LWC V2.00 B727,2013-12-09 04:27:00,
2013-12-08 21:32:00,14.4,5.1,30.48,SE,145,1.0,2.0,66,0.00,,,0.00,0,LWC V2.00 B727,2013-12-09 04:32:00,
2013-12-08 21:37:00,14.4,5.5,30.48,SE,145,0.0,0.0,67,0.00,,,0.00,0,LWC V2.00 B727,2013-12-09 04:37:00,
2013-12-08 21:42:00,14.5,5.6,30.48,SE,145,0.0,1.0,67,0.00,,,0.00,0,LWC V2.00 B727,2013-12-09 04:42:00,
2013-12-08 21:47:00,14.5,5.6,30.48,SE,145,0.0,1.0,67,0.00,,,0.00,0,LWC V2.00 B727,2013-12-09 04:47:00,
2013-12-08 21:52:00,14.6,6.0,30.48,SE,145,0.0,1.0,68,0.00,,,0.00,0,LWC V2.00 B727,2013-12-09 04:52:00,
2013-12-08 21:57:00,14.6,5.7,30.48,SE,145,1.0,2.0,67,0.00,,,0.00,0,LWC V2.00 B727,2013-12-09 04:57:00,
2013-12-08 22:01:00,14.7,5.8,30.48,SE,145,1.0,2.0,67,0.00,,,0.00,0,LWC V2.00 B727,2013-12-09 05:01:00,
2013-12-08 22:06:00,14.8,6.2,30.48,SE,145,0.0,1.0,68,0.00,,,0.00,0,LWC V2.00 B727,2013-12-09 05:06:00,
2013-12-08 22:11:00,14.8,6.2,30.49,SE,145,2.0,3.0,68,0.00,,,0.00,0,LWC V2.00 B727,2013-12-09 05:11:00,
2013-12-08 22:16:00,14.9,6.3,30.49,SSE,148,1.0,4.0,68,0.00,,,0.00,0,LWC V2.00 B727,2013-12-09 05:16:00,
2013-12-08 22:21:00,15.0,6.4,30.49,SSE,148,1.0,2.0,68,0.00,,,0.00,0,LWC V2.00 B727,2013-12-09 05:21:00,
2013-12-08 22:26:00,15.1,6.1,30.49,SSE,148,1.0,3.0,67,0.00,,,0.00,0,LWC V2.00 B727,2013-12-09 05:26:00,
2013-12-08 22:31:00,15.2,6.2,30.49,SSE,148,0.0,2.0,67,0.00,,,0.00,0,LWC V2.00 B727,2013-12-09 05:31:00,
2013-12-08 22:36:00,15.3,6.0,30.48,SSE,148,2.0,3.0,66,0.00,,,0.00,0,LWC V2.00 B727,2013-12-09 05:36:00,
2013-12-08 22:41:00,15.4,6.1,30.48,SE,146,0.0,2.0,66,0.00,,,0.00,0,LWC V2.00 B727,2013-12-09 05:41:00,
2013-12-08 22:46:00,15.5,6.2,30.48,SE,146,0.0,0.0,66,0.00,,,0.00,0,LWC V2.00 B727,2013-12-09 05:46:00,
2013-12-08 22:51:00,15.6,6.0,30.48,SSE,147,1.0,2.0,65,0.00,,,0.00,0,LWC V2.00 B727,2013-12-09 05:51:00,
2013-12-08 22:56:00,15.7,6.1,30.48,SSE,147,0.0,2.0,65,0.00,,,0.00,0,LWC V2.00 B727,2013-12-09 05:56:00,
2013-12-08 23:01:00,15.8,6.5,30.48,SSE,147,2.0,3.0,66,0.00,,,0.00,0,LWC V2.00 B727,2013-12-09 06:01:00,
2013-12-08 23:06:00,15.9,6.9,30.48,SSE,147,1.0,2.0,67,0.00,,,0.00,0,LWC V2.00 B727,2013-12-09 06:06:00,
2013-12-08 23:11:00,15.9,6.9,30.48,SE,146,0.0,0.0,67,0.00,,,0.00,0,LWC V2.00 B727,2013-12-09 06:11:00,
2013-12-08 23:16:00,15.9,6.9,30.49,SSE,147,0.0,0.0,67,0.00,,,0.00,0,LWC V2.00 B727,2013-12-09 06:16:00,
2013-12-08 23:21:00,15.9,7.2,30.49,SSE,147,0.0,0.0,68,0.00,,,0.00,0,LWC V2.00 B727,2013-12-09 06:21:00,
2013-12-08 23:26:00,15.9,7.6,30.49,SE,146,0.0,0.0,69,0.00,,,0.00,0,LWC V2.00 B727,2013-12-09 06:26:00,
2013-12-08 23:31:00,15.9,8.2,30.49,SSE,147,0.0,0.0,71,0.00,,,0.00,0,LWC V2.00 B727,2013-12-09 06:31:00,
2013-12-08 23:36:00,15.9,8.5,30.49,SSE,147,1.0,1.0,72,0.00,,,0.00,0,LWC V2.00 B727,2013-12-09 06:36:00,
2013-12-08 23:41:00,15.8,9.0,30.49,SSE,147,0.0,0.0,74,0.00,,,0.00,0,LWC V2.00 B727,2013-12-09 06:41:00,
2013-12-08 23:46:00,15.7,9.2,30.49,SE,146,0.0,1.0,75,0.00,,,0.00,0,LWC V2.00 B727,2013-12-09 06:46:00,
2013-12-08 23:51:00,15.6,9.1,30.49,SE,146,0.0,0.0,75,0.00,,,0.00,0,LWC V2.00 B727,2013-12-09 06:51:00,
2013-12-08 23:56:00,15.5,9.0,30.49,SSE,147,0.0,0.0,75,0.00,,,0.00,0,LWC V2.00 B727,2013-12-09 06:56:00,